AVA11 MHTG-MSLP

Flight info

Callsign AVA11
Flight time 0h 32m
Altitude 18000
Route VITAN1D VITAN A754 MUTAL MUTAL2M
Aircraft A320/M-SDE3FGHIRWY/LB1

Departure

Time 2026-05-04 05:43
Airport Toncontín Airport (MHTG)

Arrival

Time 2026-05-04 06:15
Airport El Salvador International Airport Saint Óscar Arnulfo Romero y Galdámez (MSLP)
Time Latitude Longitude Altitude Speed Heading
2026-05-04 05:39 14.05981 -87.21843 3269 ft 0 kts 199°
2026-05-04 05:40 14.05856 -87.21887 3272 ft 14 kts 200°
2026-05-04 05:40 14.05769 -87.21920 3273 ft 13 kts 198°
2026-05-04 05:40 14.05687 -87.21948 3271 ft 12 kts 200°
2026-05-04 05:41 14.05605 -87.21978 3272 ft 14 kts 200°
2026-05-04 05:41 14.05488 -87.22021 3270 ft 22 kts 199°
2026-05-04 05:41 14.05346 -87.22053 3272 ft 15 kts 177°
2026-05-04 05:41 14.05334 -87.21989 3276 ft 10 kts 38°
2026-05-04 05:42 14.05373 -87.21974 3273 ft 0 kts 20°
2026-05-04 05:42 14.05465 -87.21941 3275 ft 50 kts 19°
2026-05-04 05:42 14.06068 -87.21728 3270 ft 130 kts 19°
2026-05-04 05:42 14.07104 -87.21365 3463 ft 171 kts 18°
2026-05-04 05:43 14.08251 -87.21080 4213 ft 170 kts
2026-05-04 05:43 14.09440 -87.20992 4834 ft 172 kts
2026-05-04 05:43 14.10649 -87.20948 5262 ft 180 kts
2026-05-04 05:45 14.22765 -87.20572 8393 ft 284 kts
2026-05-04 05:45 14.24730 -87.20854 9059 ft 292 kts 337°
2026-05-04 05:47 14.28826 -87.36870 12275 ft 379 kts 281°
2026-05-04 05:47 14.29332 -87.39546 12963 ft 381 kts 282°
2026-05-04 05:47 14.29888 -87.42237 13583 ft 385 kts 283°
2026-05-04 05:48 14.30467 -87.44944 14179 ft 389 kts 283°
2026-05-04 05:48 14.31037 -87.47682 14747 ft 393 kts 281°
2026-05-04 05:48 14.31217 -87.50504 15283 ft 398 kts 268°
2026-05-04 05:48 14.30788 -87.53343 15827 ft 403 kts 255°
2026-05-04 05:49 14.29773 -87.56047 16362 ft 407 kts 242°
2026-05-04 05:49 14.28804 -87.57704 16685 ft 410 kts 234°
2026-05-04 05:49 14.27069 -87.60058 17192 ft 413 kts 232°
2026-05-04 05:49 14.25314 -87.62418 17683 ft 417 kts 232°
2026-05-04 05:51 14.06331 -87.71043 17980 ft 451 kts 189°
2026-05-04 05:51 14.03246 -87.71633 17971 ft 451 kts 189°
2026-05-04 05:52 14.00164 -87.72222 17963 ft 450 kts 189°
2026-05-04 05:52 13.97085 -87.72807 17966 ft 450 kts 189°
2026-05-04 05:52 13.94012 -87.73430 17961 ft 451 kts 193°
2026-05-04 05:52 13.91063 -87.74559 17950 ft 453 kts 206°
2026-05-04 05:53 13.88413 -87.76313 17948 ft 454 kts 218°
2026-05-04 05:54 13.79365 -87.96744 17915 ft 455 kts 252°
2026-05-04 05:55 13.78367 -87.99840 17911 ft 455 kts 252°
2026-05-04 05:55 13.77372 -88.02927 17910 ft 456 kts 252°
2026-05-04 05:55 13.76375 -88.06020 17907 ft 455 kts 252°
2026-05-04 05:55 13.75380 -88.09104 17896 ft 455 kts 252°
2026-05-04 05:56 13.74382 -88.12189 17890 ft 455 kts 252°
2026-05-04 05:56 13.73382 -88.15280 17886 ft 455 kts 252°
2026-05-04 05:56 13.72381 -88.18375 17881 ft 456 kts 252°
2026-05-04 05:56 13.71394 -88.21427 17882 ft 456 kts 252°
2026-05-04 05:57 13.70393 -88.24524 17884 ft 456 kts 252°
2026-05-04 05:57 13.69393 -88.27613 17883 ft 456 kts 252°
2026-05-04 05:57 13.68391 -88.30708 17880 ft 455 kts 252°
2026-05-04 05:57 13.67390 -88.33795 17877 ft 455 kts 252°
2026-05-04 05:58 13.66396 -88.36862 17857 ft 444 kts 252°
2026-05-04 05:58 13.65439 -88.39808 17860 ft 427 kts 252°
2026-05-04 05:58 13.64506 -88.42682 17852 ft 422 kts 252°
2026-05-04 05:58 13.63583 -88.45535 17690 ft 421 kts 252°
2026-05-04 05:59 13.62656 -88.48400 16396 ft 423 kts 252°
2026-05-04 05:59 13.61718 -88.51295 14823 ft 429 kts 252°
2026-05-04 05:59 13.60784 -88.54178 14015 ft 416 kts 252°
2026-05-04 05:59 13.59903 -88.56894 13806 ft 386 kts 252°
2026-05-04 06:00 13.59068 -88.59472 13280 ft 381 kts 252°
2026-05-04 06:00 13.58225 -88.62064 12679 ft 380 kts 252°
2026-05-04 06:00 13.57388 -88.64637 12075 ft 380 kts 252°
2026-05-04 06:00 13.56550 -88.67210 11447 ft 380 kts 252°
2026-05-04 06:01 13.55713 -88.69777 10972 ft 375 kts 251°
2026-05-04 06:01 13.54898 -88.72271 10843 ft 361 kts 252°
2026-05-04 06:03 13.49850 -88.87731 9808 ft 314 kts 251°
2026-05-04 06:03 13.49155 -88.89864 9357 ft 315 kts 251°
2026-05-04 06:05 13.44377 -89.04473 6494 ft 290 kts 252°
2026-05-04 06:05 13.42905 -89.08120 5759 ft 265 kts 233°
2026-05-04 06:05 13.41695 -89.09476 5407 ft 252 kts 221°
2026-05-04 06:06 13.40407 -89.10673 5101 ft 248 kts 221°
2026-05-04 06:06 13.39139 -89.11859 4787 ft 245 kts 222°
2026-05-04 06:06 13.37886 -89.13038 4458 ft 244 kts 222°
2026-05-04 06:06 13.36665 -89.14189 4255 ft 228 kts 222°
2026-05-04 06:07 13.35527 -89.15261 3880 ft 217 kts 222°
2026-05-04 06:07 13.34441 -89.16285 3570 ft 206 kts 222°
2026-05-04 06:07 13.33421 -89.17245 3395 ft 189 kts 222°
2026-05-04 06:07 13.32552 -89.18152 3327 ft 170 kts 234°
2026-05-04 06:08 13.32051 -89.19185 3257 ft 158 kts 255°
2026-05-04 06:08 13.31905 -89.20289 3196 ft 156 kts 273°
2026-05-04 06:08 13.32103 -89.21374 3124 ft 155 kts 291°
2026-05-04 06:08 13.32617 -89.22333 3051 ft 153 kts 310°
2026-05-04 06:09 13.33393 -89.23073 2974 ft 152 kts 328°
2026-05-04 06:09 13.34345 -89.23530 2895 ft 152 kts 345°
2026-05-04 06:11 13.39204 -89.19230 2146 ft 148 kts 69°
2026-05-04 06:11 13.39564 -89.18242 1988 ft 147 kts 69°
2026-05-04 06:13 13.41950 -89.11566 890 ft 141 kts 69°
2026-05-04 06:14 13.43936 -89.06005 94 ft 105 kts 70°
2026-05-04 06:14 13.44130 -89.05466 93 ft 54 kts 69°
2026-05-04 06:15 13.44248 -89.05341 93 ft 20 kts 349°
2026-05-04 06:15 13.44359 -89.05379 92 ft 14 kts 340°
2026-05-04 06:15 13.43523 -89.07151 165 ft 140 kts 69°
2026-05-04 06:15 13.43762 -89.06493 94 ft 131 kts 70°
2026-05-04 06:16 13.43790 -89.06415 95 ft 128 kts 70°
2026-05-04 06:16 13.43432 -89.07400 214 ft 140 kts 69°
2026-05-04 06:16 13.43768 -89.06477 96 ft 130 kts 70°
2026-05-04 06:16 13.43616 -89.06899 119 ft 140 kts 69°
2026-05-04 06:17 13.43922 -89.06047 92 ft 108 kts 70°
2026-05-04 06:17 13.43645 -89.06818 111 ft 140 kts 69°
2026-05-04 06:17 13.43944 -89.05984 92 ft 103 kts 70°
2026-05-04 06:17 13.44368 -89.05382 94 ft 14 kts 342°
2026-05-04 06:18 13.44358 -89.05379 92 ft 14 kts 340°
2026-05-04 06:18 13.44370 -89.05383 96 ft 0 kts 341°
2026-05-04 06:18 13.44371 -89.05383 94 ft 2 kts 341°